World > North America > United States > Ohio > Vermilion   City of Vermilion, OH

Vermilion, OH Hourly Weather Updates

Feedback E-mail the Weather

Quick Clicks

Vermilion, OH Weather Maps

°F °C°F °C
Vermilion Weather Map
UTC Time: 5/18/2024, 01:27
Your Time:

Vermilion, OH Regional Weather

Expires:202405180200;;396090
ASUS41 KCLE 180112
RWRCLE
OHIO REGIONAL WEATHER ROUNDUP
NATIONAL WEATHER SERVICE WILMINGTON, OH
900 PM EDT FRI MAY 17 2024

NOTE: "FAIR" INDICATES FEW OR NO CLOUDS BELOW 12,000 FEET WITH NO
SIGNIFICANT WEATHER AND/OR OBSTRUCTIONS TO VISIBILITY.


OHZ009>014-019>023-028>033-038-089-180200-
   NORTHEAST OHIO
  
CITY           SKY/WX    TMP DP  RH WIND       PRES   REMARKS
CLE-HOPKINS    MOCLDY    67  60  78 N5        29.82R                  
CLE-LAKEFRONT  FAIR      65  60  84 CALM      29.82R                  
CUY CO. ARPT   PTCLDY    63  63 100 CALM      29.84R                  
LORAIN-ELYRIA  FAIR      67  61  81 NE3       29.84R                  
ASHTABULA      FOG       63  61  93 CALM      29.83S VSB 3/4          
AKRON-CANTON   CLOUDY    66  62  87 S3        29.84R                  
WOOSTER        MOCLDY    68  62  81 SW5       29.84S                  
MANSFIELD      FAIR      63  60  90 S5        29.84S                  
YOUNGSTOWN     CLOUDY    66  63  90 S3        29.84R THUNDER          
$$
 

SKY/WX - Weather  TMP - Temperature  DP - Dew Point  RH - Humidity
WIND - Wind Direction/Speed PRES - Barometric Pressure VSB - Visibility
WCI - Wind Chill Index E13G22 Wind - East Wind 13 mph/Gusts of 22 mph

Trending Headlines

Trending Entertainment Headlines

Vermilion Radar Loop

Use the map search tool if you want to place a location marker on the radar map...

Vermilion Quick Facts

National Two Day Weather Forecast


E-mail the Vermilion Weather Forecast

Voice your opinion or tell us about page issues...